Time,TemperatureF,DewpointF,PressureIn,WindDirection,WindDirectionDegrees,WindSpeedMPH,WindSpeedGustMPH,Humidity,HourlyPrecipIn,Conditions,Clouds,dailyrainin,SoftwareType,DateUTC
2013-08-24 00:01:00,58.1,32.0,17.72,NNE,21,0.0,0.0,37,0.00,,---,0.00,VWS V13.01,2013-08-24 04:01:00,
2013-08-24 00:06:00,58.1,32.0,17.72,NNE,21,0.0,0.0,37,0.00,,---,0.00,VWS V13.01,2013-08-24 04:06:00,
2013-08-24 00:11:00,57.9,31.8,17.72,NNE,21,0.0,0.0,37,0.00,,---,0.00,VWS V13.01,2013-08-24 04:11:00,
2013-08-24 00:16:00,57.9,31.8,17.72,NNE,21,0.0,0.0,37,0.00,,---,0.00,VWS V13.01,2013-08-24 04:16:00,
2013-08-24 00:21:00,57.9,31.8,17.72,NNE,21,0.0,0.0,37,0.00,,---,0.00,VWS V13.01,2013-08-24 04:21:00,
2013-08-24 00:26:00,57.7,31.7,17.72,NNE,21,0.0,0.0,37,0.00,,---,0.00,VWS V13.01,2013-08-24 04:26:00,
2013-08-24 00:31:00,57.7,31.7,17.72,NNE,21,0.0,0.0,37,0.00,,---,0.00,VWS V13.01,2013-08-24 04:31:00,
2013-08-24 00:36:00,57.7,31.7,17.72,NNE,21,0.0,0.0,37,0.00,,---,0.00,VWS V13.01,2013-08-24 04:36:00,
2013-08-24 00:41:00,57.6,32.2,17.72,NNE,21,0.0,0.0,38,0.00,,---,0.00,VWS V13.01,2013-08-24 04:41:00,
2013-08-24 00:46:00,57.6,32.2,17.72,NNE,21,0.0,0.0,38,0.00,,---,0.00,VWS V13.01,2013-08-24 04:46:00,
2013-08-24 00:51:00,57.6,32.2,17.72,NNE,21,0.0,0.0,38,0.00,,---,0.00,VWS V13.01,2013-08-24 04:51:00,
2013-08-24 00:56:00,57.6,32.2,17.72,NNE,21,0.0,0.0,38,0.00,,---,0.00,VWS V13.01,2013-08-24 04:56:00,
2013-08-24 01:01:00,57.6,32.2,17.72,NNE,21,0.0,0.0,38,0.00,,---,0.00,VWS V13.01,2013-08-24 05:01:00,
2013-08-24 01:06:00,57.4,32.0,17.72,NNE,21,0.0,0.0,38,0.00,,---,0.00,VWS V13.01,2013-08-24 05:06:00,
2013-08-24 01:11:00,57.4,32.7,17.72,NNE,21,0.0,0.0,39,0.00,,---,0.00,VWS V13.01,2013-08-24 05:11:00,
2013-08-24 01:16:00,57.4,32.7,17.72,NNE,21,0.0,0.0,39,0.00,,---,0.00,VWS V13.01,2013-08-24 05:16:00,
2013-08-24 01:21:00,57.6,32.8,17.72,NNE,21,0.0,0.0,39,0.00,,---,0.00,VWS V13.01,2013-08-24 05:21:00,
2013-08-24 01:26:00,57.6,32.8,17.72,NNE,21,0.0,0.0,39,0.00,,---,0.00,VWS V13.01,2013-08-24 05:26:00,
2013-08-24 01:31:00,57.6,32.8,17.72,NNE,21,0.0,0.0,39,0.00,,---,0.00,VWS V13.01,2013-08-24 05:31:00,
2013-08-24 01:36:00,57.4,32.7,17.72,NNE,21,0.0,0.0,39,0.00,,---,0.00,VWS V13.01,2013-08-24 05:36:00,
2013-08-24 01:41:00,57.4,33.3,17.72,NNE,21,0.0,0.0,40,0.00,,---,0.00,VWS V13.01,2013-08-24 05:41:00,
2013-08-24 01:46:00,57.4,33.3,17.72,NNE,21,0.0,0.0,40,0.00,,---,0.00,VWS V13.01,2013-08-24 05:46:00,
2013-08-24 01:51:00,57.4,33.3,17.72,NNE,21,0.0,0.0,40,0.00,,---,0.00,VWS V13.01,2013-08-24 05:51:00,
2013-08-24 01:56:00,57.4,33.3,17.72,NNE,21,0.0,0.0,40,0.00,,---,0.00,VWS V13.01,2013-08-24 05:56:00,
2013-08-24 02:01:00,57.2,33.1,17.72,NNE,21,0.0,0.0,40,0.00,,---,0.00,VWS V13.01,2013-08-24 06:01:00,
2013-08-24 02:06:00,57.2,33.1,17.72,NNE,21,0.0,0.0,40,0.00,,---,0.00,VWS V13.01,2013-08-24 06:06:00,
2013-08-24 02:11:00,57.2,33.7,17.72,NNE,21,0.0,0.0,41,0.00,,---,0.00,VWS V13.01,2013-08-24 06:11:00,
2013-08-24 02:16:00,57.0,33.6,17.72,NNE,21,0.0,0.0,41,0.00,,---,0.00,VWS V13.01,2013-08-24 06:16:00,
2013-08-24 02:21:00,57.0,33.6,17.72,NNE,21,0.0,0.0,41,0.00,,---,0.00,VWS V13.01,2013-08-24 06:21:00,
2013-08-24 02:26:00,56.8,33.4,17.72,NNE,21,0.0,0.0,41,0.00,,---,0.00,VWS V13.01,2013-08-24 06:26:00,
2013-08-24 02:31:00,56.8,34.0,17.72,NNE,21,0.0,0.0,42,0.00,,---,0.00,VWS V13.01,2013-08-24 06:31:00,
2013-08-24 02:36:00,56.8,34.0,17.72,NNE,21,0.0,0.0,42,0.00,,---,0.00,VWS V13.01,2013-08-24 06:36:00,
2013-08-24 02:41:00,56.7,33.8,17.72,NNE,21,0.0,0.0,42,0.00,,---,0.00,VWS V13.01,2013-08-24 06:41:00,
2013-08-24 02:46:00,56.7,33.8,17.72,NNE,21,0.0,0.0,42,0.00,,---,0.00,VWS V13.01,2013-08-24 06:46:00,
2013-08-24 02:51:00,56.7,33.8,17.72,NNE,21,0.0,0.0,42,0.00,,---,0.00,VWS V13.01,2013-08-24 06:51:00,
2013-08-24 02:56:00,56.5,33.7,17.72,NNE,21,0.0,0.0,42,0.00,,---,0.00,VWS V13.01,2013-08-24 06:56:00,
2013-08-24 03:01:00,56.5,33.7,17.72,NNE,21,0.0,0.0,42,0.00,,---,0.00,VWS V13.01,2013-08-24 07:01:00,
2013-08-24 03:06:00,56.3,33.5,17.72,NNE,21,0.0,0.0,42,0.00,,---,0.00,VWS V13.01,2013-08-24 07:06:00,
2013-08-24 03:11:00,56.3,33.5,17.72,NNE,21,0.0,0.0,42,0.00,,---,0.00,VWS V13.01,2013-08-24 07:11:00,
2013-08-24 03:16:00,56.3,34.1,17.72,NNE,21,0.0,0.0,43,0.00,,---,0.00,VWS V13.01,2013-08-24 07:16:00,
2013-08-24 03:21:00,56.3,34.1,17.72,NNE,21,0.0,0.0,43,0.00,,---,0.00,VWS V13.01,2013-08-24 07:21:00,
2013-08-24 03:26:00,56.1,34.0,17.72,NNE,21,0.0,0.0,43,0.00,,---,0.00,VWS V13.01,2013-08-24 07:26:00,
2013-08-24 03:31:00,56.1,34.0,17.72,NNE,21,0.0,0.0,43,0.00,,---,0.00,VWS V13.01,2013-08-24 07:31:00,
2013-08-24 03:36:00,56.1,34.0,17.72,NNE,21,0.0,0.0,43,0.00,,---,0.00,VWS V13.01,2013-08-24 07:36:00,
2013-08-24 03:41:00,55.9,33.8,17.72,NNE,21,0.0,0.0,43,0.00,,---,0.00,VWS V13.01,2013-08-24 07:41:00,
2013-08-24 03:46:00,55.9,33.8,17.72,NNE,21,0.0,0.0,43,0.00,,---,0.00,VWS V13.01,2013-08-24 07:46:00,
2013-08-24 03:51:00,55.9,33.8,17.72,NNE,21,0.0,0.0,43,0.00,,---,0.00,VWS V13.01,2013-08-24 07:51:00,
2013-08-24 03:56:00,55.9,34.4,17.72,NNE,21,0.0,0.0,44,0.00,,---,0.00,VWS V13.01,2013-08-24 07:56:00,
2013-08-24 04:01:00,55.8,34.2,17.72,NNE,21,0.0,0.0,44,0.00,,---,0.00,VWS V13.01,2013-08-24 08:01:00,
2013-08-24 04:06:00,55.8,34.2,17.72,NNE,21,0.0,0.0,44,0.00,,---,0.00,VWS V13.01,2013-08-24 08:06:00,
2013-08-24 04:11:00,55.6,34.0,17.72,NNE,21,0.0,0.0,44,0.00,,---,0.00,VWS V13.01,2013-08-24 08:11:00,
2013-08-24 04:16:00,55.8,34.2,17.72,NNE,21,0.0,0.0,44,0.00,,---,0.00,VWS V13.01,2013-08-24 08:16:00,
2013-08-24 04:21:00,55.8,34.2,17.72,NNE,21,0.0,0.0,44,0.00,,---,0.00,VWS V13.01,2013-08-24 08:21:00,
2013-08-24 04:26:00,55.8,34.2,17.72,NNE,21,0.0,0.0,44,0.00,,---,0.00,VWS V13.01,2013-08-24 08:26:00,
2013-08-24 04:31:00,55.8,34.2,17.72,NNE,21,0.0,0.0,44,0.00,,---,0.00,VWS V13.01,2013-08-24 08:31:00,
2013-08-24 04:36:00,55.8,34.2,17.72,NNE,21,0.0,0.0,44,0.00,,---,0.00,VWS V13.01,2013-08-24 08:36:00,
2013-08-24 04:41:00,55.6,34.0,17.72,NNE,21,0.0,0.0,44,0.00,,---,0.00,VWS V13.01,2013-08-24 08:41:00,
2013-08-24 04:46:00,55.4,34.4,17.72,NNE,21,0.0,0.0,45,0.00,,---,0.00,VWS V13.01,2013-08-24 08:46:00,
2013-08-24 04:51:00,55.4,34.4,17.72,NNE,21,0.0,0.0,45,0.00,,---,0.00,VWS V13.01,2013-08-24 08:51:00,
2013-08-24 04:56:00,55.4,34.4,17.72,NNE,21,0.0,0.0,45,0.00,,---,0.00,VWS V13.01,2013-08-24 08:56:00,
2013-08-24 05:01:00,55.2,34.3,17.72,NNE,21,0.0,0.0,45,0.00,,---,0.00,VWS V13.01,2013-08-24 09:01:00,
2013-08-24 05:06:00,55.2,34.3,17.72,NNE,21,0.0,0.0,45,0.00,,---,0.00,VWS V13.01,2013-08-24 09:06:00,
2013-08-24 05:11:00,55.0,34.1,17.72,NNE,21,0.0,0.0,45,0.00,,---,0.00,VWS V13.01,2013-08-24 09:11:00,
2013-08-24 05:16:00,55.0,34.1,17.72,NNE,21,0.0,0.0,45,0.00,,---,0.00,VWS V13.01,2013-08-24 09:16:00,
2013-08-24 05:21:00,55.0,34.7,17.72,NNE,21,0.0,0.0,46,0.00,,---,0.00,VWS V13.01,2013-08-24 09:21:00,
2013-08-24 05:26:00,55.2,34.8,17.72,NNE,21,0.0,0.0,46,0.00,,---,0.00,VWS V13.01,2013-08-24 09:26:00,
2013-08-24 05:31:00,55.2,34.8,17.72,NNE,21,0.0,0.0,46,0.00,,---,0.00,VWS V13.01,2013-08-24 09:31:00,
2013-08-24 05:36:00,55.2,34.8,17.72,NNE,21,0.0,0.0,46,0.00,,---,0.00,VWS V13.01,2013-08-24 09:36:00,
2013-08-24 05:41:00,55.2,34.8,17.72,NNE,21,0.0,0.0,46,0.00,,---,0.00,VWS V13.01,2013-08-24 09:41:00,
2013-08-24 05:46:00,55.2,34.8,17.72,NNE,21,0.0,0.0,46,0.00,,---,0.00,VWS V13.01,2013-08-24 09:46:00,
2013-08-24 05:51:00,55.4,35.0,17.72,NNE,21,0.0,0.0,46,0.00,,---,0.00,VWS V13.01,2013-08-24 09:51:00,
2013-08-24 05:56:00,55.4,35.0,17.72,NNE,21,0.0,0.0,46,0.00,,---,0.00,VWS V13.01,2013-08-24 09:56:00,
2013-08-24 06:01:00,55.6,35.2,17.72,NNE,21,0.0,0.0,46,0.00,,---,0.00,VWS V13.01,2013-08-24 10:01:00,
2013-08-24 06:05:00,55.9,35.5,17.72,NNE,21,0.0,0.0,46,0.00,,---,0.00,VWS V13.01,2013-08-24 10:05:00,
2013-08-24 06:10:00,56.1,35.6,17.72,NNE,21,0.0,0.0,46,0.00,,---,0.00,VWS V13.01,2013-08-24 10:10:00,
2013-08-24 06:15:00,56.3,35.8,17.72,NNE,21,0.0,0.0,46,0.00,,---,0.00,VWS V13.01,2013-08-24 10:15:00,
2013-08-24 06:20:00,56.5,36.0,17.72,NNE,21,0.0,0.0,46,0.00,,---,0.00,VWS V13.01,2013-08-24 10:20:00,
2013-08-24 06:25:00,56.7,36.7,17.72,NNE,21,0.0,0.0,47,0.00,,---,0.00,VWS V13.01,2013-08-24 10:25:00,
2013-08-24 06:30:00,56.8,36.3,17.72,NNE,21,0.0,0.0,46,0.00,,---,0.00,VWS V13.01,2013-08-24 10:30:00,
2013-08-24 06:35:00,56.8,36.3,17.72,NNE,21,0.0,0.0,46,0.00,,---,0.00,VWS V13.01,2013-08-24 10:35:00,
2013-08-24 06:40:00,57.0,36.5,17.72,NNE,21,0.0,0.0,46,0.00,,---,0.00,VWS V13.01,2013-08-24 10:40:00,
2013-08-24 06:45:00,57.2,36.6,17.72,NNE,21,0.0,0.0,46,0.00,,---,0.00,VWS V13.01,2013-08-24 10:45:00,
2013-08-24 06:50:00,57.2,36.6,17.72,NNE,22,0.0,0.0,46,0.00,,---,0.00,VWS V13.01,2013-08-24 10:50:00,
2013-08-24 06:55:00,57.4,36.8,17.72,NNE,26,0.0,0.0,46,0.00,,---,0.00,VWS V13.01,2013-08-24 10:55:00,
2013-08-24 07:00:00,57.6,37.0,17.72,NNE,26,0.0,0.0,46,0.00,,---,0.00,VWS V13.01,2013-08-24 11:00:00,
2013-08-24 07:05:00,57.6,37.0,17.72,NNE,26,0.0,0.0,46,0.00,,---,0.00,VWS V13.01,2013-08-24 11:05:00,
2013-08-24 07:10:00,57.6,37.0,17.72,NNE,26,0.0,0.0,46,0.00,,---,0.00,VWS V13.01,2013-08-24 11:10:00,
2013-08-24 07:15:00,57.7,37.1,17.72,NNE,26,0.0,0.0,46,0.00,,---,0.00,VWS V13.01,2013-08-24 11:15:00,
2013-08-24 07:20:00,57.9,37.3,17.72,NNE,26,0.0,0.0,46,0.00,,---,0.00,VWS V13.01,2013-08-24 11:20:00,
2013-08-24 07:25:00,58.1,37.5,17.72,NNE,26,0.0,0.0,46,0.00,,---,0.00,VWS V13.01,2013-08-24 11:25:00,
2013-08-24 07:30:00,58.5,37.8,17.72,NNE,26,0.0,0.0,46,0.00,,---,0.00,VWS V13.01,2013-08-24 11:30:00,
2013-08-24 07:35:00,58.5,37.8,17.72,NNE,26,0.0,0.0,46,0.00,,---,0.00,VWS V13.01,2013-08-24 11:35:00,
2013-08-24 07:40:00,58.6,37.9,17.72,NNE,26,0.0,0.0,46,0.00,,---,0.00,VWS V13.01,2013-08-24 11:40:00,
2013-08-24 07:45:00,58.6,37.9,17.72,NNE,26,0.0,0.0,46,0.00,,---,0.00,VWS V13.01,2013-08-24 11:45:00,
2013-08-24 07:50:00,58.8,38.1,17.72,NNE,26,0.0,0.0,46,0.00,,---,0.00,VWS V13.01,2013-08-24 11:50:00,
2013-08-24 07:55:00,58.8,38.1,17.72,NNE,26,0.0,0.0,46,0.00,,---,0.00,VWS V13.01,2013-08-24 11:55:00,
2013-08-24 08:00:00,58.8,38.1,17.72,NNE,26,0.0,0.0,46,0.00,,---,0.00,VWS V13.01,2013-08-24 12:00:00,
2013-08-24 08:05:00,59.0,37.7,17.72,NNE,26,0.0,0.0,45,0.00,,---,0.00,VWS V13.01,2013-08-24 12:05:00,
2013-08-24 08:10:00,59.2,37.9,17.72,NNE,26,0.0,0.0,45,0.00,,---,0.00,VWS V13.01,2013-08-24 12:10:00,
2013-08-24 08:15:00,59.4,38.0,17.72,NNE,26,0.0,0.0,45,0.00,,---,0.00,VWS V13.01,2013-08-24 12:15:00,
2013-08-24 08:20:00,59.5,38.2,17.72,NNE,26,0.0,0.0,45,0.00,,---,0.00,VWS V13.01,2013-08-24 12:20:00,
2013-08-24 08:25:00,59.9,38.5,17.72,NNE,26,0.0,0.0,45,0.00,,---,0.00,VWS V13.01,2013-08-24 12:25:00,
2013-08-24 08:30:00,60.3,38.8,17.72,NNE,26,0.0,0.0,45,0.00,,---,0.00,VWS V13.01,2013-08-24 12:30:00,
2013-08-24 08:35:00,60.6,38.6,17.72,SSE,159,0.0,0.0,44,0.00,,---,0.00,VWS V13.01,2013-08-24 12:35:00,
2013-08-24 08:40:00,61.2,39.1,17.72,SSE,158,0.0,0.0,44,0.00,,---,0.00,VWS V13.01,2013-08-24 12:40:00,
2013-08-24 08:45:00,61.5,38.8,17.72,SSE,168,0.0,0.0,43,0.00,,---,0.00,VWS V13.01,2013-08-24 12:45:00,
2013-08-24 08:50:00,62.1,39.3,17.72,SE,136,0.0,0.0,43,0.00,,---,0.00,VWS V13.01,2013-08-24 12:50:00,
2013-08-24 08:55:00,62.4,39.0,17.72,SE,136,0.0,0.0,42,0.00,,---,0.00,VWS V13.01,2013-08-24 12:55:00,
2013-08-24 09:00:00,62.6,38.6,17.72,SE,136,0.0,0.0,41,0.00,,---,0.00,VWS V13.01,2013-08-24 13:00:00,
2013-08-24 09:05:00,63.0,38.9,17.72,West,265,0.0,0.0,41,0.00,,---,0.00,VWS V13.01,2013-08-24 13:05:00,
2013-08-24 09:10:00,63.5,38.8,17.72,West,268,0.0,0.0,40,0.00,,---,0.00,VWS V13.01,2013-08-24 13:10:00,
2013-08-24 09:15:00,63.9,38.5,17.72,West,268,0.0,0.0,39,0.00,,---,0.00,VWS V13.01,2013-08-24 13:15:00,
2013-08-24 09:20:00,64.4,38.3,17.72,West,268,0.0,0.0,38,0.00,,---,0.00,VWS V13.01,2013-08-24 13:20:00,
2013-08-24 09:25:00,64.6,37.8,17.72,SE,140,0.0,0.0,37,0.00,,---,0.00,VWS V13.01,2013-08-24 13:25:00,
2013-08-24 09:30:00,65.3,37.7,17.72,SE,141,0.0,0.0,36,0.00,,---,0.00,VWS V13.01,2013-08-24 13:30:00,
2013-08-24 09:35:00,65.8,37.5,17.72,SE,141,0.0,0.0,35,0.00,,---,0.00,VWS V13.01,2013-08-24 13:35:00,
2013-08-24 09:40:00,66.0,36.9,17.72,SE,141,0.0,0.0,34,0.00,,---,0.00,VWS V13.01,2013-08-24 13:40:00,
2013-08-24 09:45:00,66.4,36.4,17.72,SE,141,0.0,0.0,33,0.00,,---,0.00,VWS V13.01,2013-08-24 13:45:00,
2013-08-24 09:50:00,66.7,36.8,17.72,SE,141,0.0,0.0,33,0.00,,---,0.00,VWS V13.01,2013-08-24 13:50:00,
2013-08-24 09:55:00,67.1,34.7,17.72,SE,145,0.0,0.0,30,0.00,,---,0.00,VWS V13.01,2013-08-24 13:55:00,
2013-08-24 10:00:00,67.3,33.1,17.72,SE,145,0.0,0.0,28,0.00,,---,0.00,VWS V13.01,2013-08-24 14:00:00,
2013-08-24 10:05:00,67.5,32.3,17.72,SE,146,0.0,0.0,27,0.00,,---,0.00,VWS V13.01,2013-08-24 14:05:00,
2013-08-24 10:10:00,67.8,30.7,17.72,SE,144,0.0,0.0,25,0.00,,---,0.00,VWS V13.01,2013-08-24 14:10:00,
2013-08-24 10:15:00,68.0,29.9,17.72,SE,144,0.0,0.0,24,0.00,,---,0.00,VWS V13.01,2013-08-24 14:15:00,
2013-08-24 10:20:00,68.2,30.0,17.72,SE,145,0.0,0.0,24,0.00,,---,0.00,VWS V13.01,2013-08-24 14:20:00,
2013-08-24 10:25:00,68.4,29.1,17.72,SE,145,0.0,0.0,23,0.00,,---,0.00,VWS V13.01,2013-08-24 14:25:00,
2013-08-24 10:30:00,68.4,29.1,17.72,SE,145,0.0,0.0,23,0.00,,---,0.00,VWS V13.01,2013-08-24 14:30:00,
2013-08-24 10:35:00,68.7,29.5,17.72,SE,143,0.0,0.0,23,0.00,,---,0.00,VWS V13.01,2013-08-24 14:35:00,
2013-08-24 10:40:00,68.9,28.5,17.72,SE,146,0.0,0.0,22,0.00,,---,0.00,VWS V13.01,2013-08-24 14:40:00,
2013-08-24 10:45:00,68.9,26.2,17.72,SE,146,0.0,0.0,20,0.00,,---,0.00,VWS V13.01,2013-08-24 14:45:00,
2013-08-24 10:50:00,69.1,26.4,17.72,SE,146,0.0,0.0,20,0.00,,---,0.00,VWS V13.01,2013-08-24 14:50:00,
2013-08-24 10:55:00,68.9,26.2,17.72,SE,146,0.0,0.0,20,0.00,,---,0.00,VWS V13.01,2013-08-24 14:55:00,
2013-08-24 11:00:00,69.1,22.5,17.72,SE,144,0.0,0.0,17,0.00,,---,0.00,VWS V13.01,2013-08-24 15:00:00,
2013-08-24 11:05:00,69.3,22.6,17.72,SE,144,0.0,0.0,17,0.00,,---,0.00,VWS V13.01,2013-08-24 15:05:00,
2013-08-24 11:10:00,69.3,19.7,17.72,East,101,0.0,0.0,15,0.00,,---,0.00,VWS V13.01,2013-08-24 15:10:00,
2013-08-24 11:15:00,69.4,19.8,17.72,NE,51,0.0,0.0,15,0.00,,---,0.00,VWS V13.01,2013-08-24 15:15:00,
2013-08-24 11:20:00,69.6,20.0,17.72,North,357,0.0,0.0,15,0.00,,---,0.00,VWS V13.01,2013-08-24 15:20:00,
2013-08-24 11:25:00,69.8,18.5,17.72,ENE,63,0.0,0.0,14,0.00,,---,0.00,VWS V13.01,2013-08-24 15:25:00,
2013-08-24 11:30:00,70.0,18.6,17.72,West,264,0.0,0.0,14,0.00,,---,0.00,VWS V13.01,2013-08-24 15:30:00,
2013-08-24 11:35:00,70.2,15.2,17.72,East,97,0.0,0.0,12,0.00,,---,0.00,VWS V13.01,2013-08-24 15:35:00,
2013-08-24 11:40:00,70.3,15.4,17.72,ENE,74,0.0,0.0,12,0.00,,---,0.00,VWS V13.01,2013-08-24 15:40:00,
2013-08-24 11:45:00,70.7,15.6,17.72,ENE,70,0.0,0.0,12,0.00,,---,0.00,VWS V13.01,2013-08-24 15:45:00,
2013-08-24 11:50:00,71.2,16.1,17.72,ESE,106,0.0,0.0,12,0.00,,---,0.00,VWS V13.01,2013-08-24 15:50:00,
2013-08-24 11:55:00,71.6,14.4,17.72,ENE,68,0.0,0.0,11,0.00,,---,0.00,VWS V13.01,2013-08-24 15:55:00,
2013-08-24 12:00:00,71.4,16.2,17.72,NE,44,0.0,0.0,12,0.00,,---,0.00,VWS V13.01,2013-08-24 16:00:00,
2013-08-24 12:05:00,71.1,15.9,17.72,NNE,22,0.0,0.0,12,0.00,,---,0.00,VWS V13.01,2013-08-24 16:05:00,
2013-08-24 12:10:00,70.9,15.8,17.72,East,79,0.0,0.0,12,0.00,,---,0.00,VWS V13.01,2013-08-24 16:10:00,
2013-08-24 12:15:00,70.7,15.6,17.72,ENE,62,0.0,0.0,12,0.00,,---,0.00,VWS V13.01,2013-08-24 16:15:00,
2013-08-24 12:20:00,70.7,15.6,17.72,North,1,0.0,0.0,12,0.00,,---,0.00,VWS V13.01,2013-08-24 16:20:00,
2013-08-24 12:25:00,70.7,15.6,17.72,North,7,0.0,0.0,12,0.00,,---,0.00,VWS V13.01,2013-08-24 16:25:00,
2013-08-24 12:30:00,70.7,15.6,17.72,NNE,15,0.0,0.0,12,0.00,,---,0.00,VWS V13.01,2013-08-24 16:30:00,
2013-08-24 12:35:00,70.7,15.6,17.72,NNE,18,3.6,3.6,12,0.00,,---,0.00,VWS V13.01,2013-08-24 16:35:00,
2013-08-24 12:40:00,70.5,15.5,17.72,East,79,0.0,0.0,12,0.00,,---,0.00,VWS V13.01,2013-08-24 16:40:00,
2013-08-24 12:45:00,70.7,15.6,17.72,North,7,0.0,2.2,12,0.00,,---,0.00,VWS V13.01,2013-08-24 16:45:00,
2013-08-24 12:50:00,70.9,15.8,17.72,East,97,0.0,3.1,12,0.00,,---,0.00,VWS V13.01,2013-08-24 16:50:00,
2013-08-24 12:55:00,70.9,15.8,17.72,East,86,0.0,0.0,12,0.00,,---,0.00,VWS V13.01,2013-08-24 16:55:00,
2013-08-24 13:00:00,70.9,15.8,17.72,North,4,0.0,4.0,12,0.00,,---,0.00,VWS V13.01,2013-08-24 17:00:00,
2013-08-24 13:05:00,71.2,16.1,17.72,NE,39,0.0,0.0,12,0.00,,---,0.00,VWS V13.01,2013-08-24 17:05:00,
2013-08-24 13:10:00,71.2,16.1,17.72,ENE,78,0.0,0.0,12,0.00,,---,0.00,VWS V13.01,2013-08-24 17:10:00,
2013-08-24 13:15:00,71.4,16.2,17.72,NE,47,4.0,4.0,12,0.00,,---,0.00,VWS V13.01,2013-08-24 17:15:00,
2013-08-24 13:20:00,71.8,14.5,17.72,WSW,257,0.0,0.0,11,0.00,,---,0.00,VWS V13.01,2013-08-24 17:20:00,
2013-08-24 13:25:00,72.3,14.9,17.72,NNE,29,0.0,0.0,11,0.00,,---,0.00,VWS V13.01,2013-08-24 17:25:00,
2013-08-24 13:30:00,72.7,15.2,17.72,ENE,70,0.0,0.0,11,0.00,,---,0.00,VWS V13.01,2013-08-24 17:30:00,
2013-08-24 13:35:00,73.4,15.7,17.72,North,6,0.0,0.0,11,0.00,,---,0.00,VWS V13.01,2013-08-24 17:35:00,
2013-08-24 13:40:00,73.9,16.1,17.72,North,9,2.2,3.1,11,0.00,,---,0.00,VWS V13.01,2013-08-24 17:40:00,
2013-08-24 13:45:00,74.5,16.6,17.72,North,3,0.0,3.1,11,0.00,,---,0.00,VWS V13.01,2013-08-24 17:45:00,
2013-08-24 13:50:00,74.8,16.9,17.72,ENE,72,0.0,0.0,11,0.00,,---,0.00,VWS V13.01,2013-08-24 17:50:00,
2013-08-24 13:55:00,75.4,15.1,17.72,NE,41,0.0,0.0,10,0.00,,---,0.00,VWS V13.01,2013-08-24 17:55:00,
2013-08-24 14:00:00,75.6,15.2,17.72,NE,41,0.0,0.0,10,0.00,,---,0.00,VWS V13.01,2013-08-24 18:00:00,
2013-08-24 14:05:00,76.3,15.8,17.72,East,81,0.0,0.0,10,0.00,,---,0.00,VWS V13.01,2013-08-24 18:05:00,
2013-08-24 14:10:00,76.6,16.0,17.72,East,98,0.0,0.0,10,0.00,,---,0.00,VWS V13.01,2013-08-24 18:10:00,
2013-08-24 14:15:00,76.6,16.0,17.72,ESE,106,0.0,3.1,10,0.00,,---,0.00,VWS V13.01,2013-08-24 18:15:00,
2013-08-24 14:20:00,76.6,16.0,17.72,NE,52,3.1,3.1,10,0.00,,---,0.00,VWS V13.01,2013-08-24 18:20:00,
2013-08-24 14:25:00,76.6,16.0,17.72,NNE,19,0.0,2.7,10,0.00,,---,0.00,VWS V13.01,2013-08-24 18:25:00,
2013-08-24 14:30:00,76.8,16.2,17.72,ENE,75,0.0,3.6,10,0.00,,---,0.00,VWS V13.01,2013-08-24 18:30:00,
2013-08-24 14:35:00,77.7,16.9,17.72,NE,50,2.7,2.7,10,0.00,,---,0.00,VWS V13.01,2013-08-24 18:35:00,
2013-08-24 14:40:00,78.6,17.5,17.72,North,357,0.0,4.9,10,0.00,,---,0.00,VWS V13.01,2013-08-24 18:40:00,
2013-08-24 14:45:00,78.3,17.3,17.72,ENE,57,2.2,3.1,10,0.00,,---,0.00,VWS V13.01,2013-08-24 18:45:00,
2013-08-24 14:50:00,78.4,17.4,17.72,ESE,103,0.0,2.7,10,0.00,,---,0.00,VWS V13.01,2013-08-24 18:50:00,
2013-08-24 14:55:00,78.4,17.4,17.72,NW,322,0.0,0.0,10,0.00,,---,0.00,VWS V13.01,2013-08-24 18:55:00,
2013-08-24 15:00:00,78.6,17.5,17.72,East,81,2.2,2.2,10,0.00,,---,0.00,VWS V13.01,2013-08-24 19:00:00,
2013-08-24 15:05:00,78.3,17.3,17.72,East,87,2.2,3.6,10,0.00,,---,0.00,VWS V13.01,2013-08-24 19:05:00,
2013-08-24 15:10:00,77.7,16.9,17.72,ENE,57,0.0,0.0,10,0.00,,---,0.00,VWS V13.01,2013-08-24 19:10:00,
2013-08-24 15:15:00,78.4,17.4,17.72,East,79,0.0,2.2,10,0.00,,---,0.00,VWS V13.01,2013-08-24 19:15:00,
2013-08-24 15:20:00,78.4,17.4,17.72,East,93,0.0,2.2,10,0.00,,---,0.00,VWS V13.01,2013-08-24 19:20:00,
2013-08-24 15:25:00,78.1,17.1,17.72,East,85,0.0,0.0,10,0.00,,---,0.00,VWS V13.01,2013-08-24 19:25:00,
2013-08-24 15:30:00,78.3,17.3,17.72,ENE,74,0.0,0.0,10,0.00,,---,0.00,VWS V13.01,2013-08-24 19:30:00,
2013-08-24 15:35:00,78.1,17.1,17.72,North,2,4.0,4.5,10,0.00,,---,0.00,VWS V13.01,2013-08-24 19:35:00,
2013-08-24 15:40:00,77.5,16.7,17.72,ENE,74,0.0,2.2,10,0.00,,---,0.00,VWS V13.01,2013-08-24 19:40:00,
2013-08-24 15:45:00,77.9,17.0,17.72,NE,37,0.0,0.0,10,0.00,,---,0.00,VWS V13.01,2013-08-24 19:45:00,
2013-08-24 15:50:00,78.8,17.7,17.72,East,96,0.0,0.0,10,0.00,,---,0.00,VWS V13.01,2013-08-24 19:50:00,
2013-08-24 15:55:00,79.0,17.8,17.72,ENE,63,0.0,0.0,10,0.00,,---,0.00,VWS V13.01,2013-08-24 19:55:00,
2013-08-24 16:00:00,79.5,18.2,17.72,NE,51,2.2,3.1,10,0.00,,---,0.00,VWS V13.01,2013-08-24 20:00:00,
2013-08-24 16:05:00,80.1,18.6,17.72,NNE,21,2.7,3.6,10,0.00,,---,0.00,VWS V13.01,2013-08-24 20:05:00,
2013-08-24 16:10:00,79.5,18.2,17.72,NNE,19,3.1,3.6,10,0.00,,---,0.00,VWS V13.01,2013-08-24 20:10:00,
2013-08-24 16:15:00,79.2,18.0,17.72,NE,55,3.1,3.1,10,0.00,,---,0.00,VWS V13.01,2013-08-24 20:15:00,
2013-08-24 16:20:00,79.3,18.1,17.72,ENE,75,0.0,0.0,10,0.00,,---,0.00,VWS V13.01,2013-08-24 20:20:00,
2013-08-24 16:25:00,79.3,18.1,17.72,East,91,0.0,0.0,10,0.00,,---,0.00,VWS V13.01,2013-08-24 20:25:00,
2013-08-24 16:30:00,79.0,17.8,17.72,NE,56,0.0,0.0,10,0.00,,---,0.00,VWS V13.01,2013-08-24 20:30:00,
2013-08-24 16:35:00,78.6,17.5,17.72,ENE,73,0.0,2.7,10,0.00,,---,0.00,VWS V13.01,2013-08-24 20:35:00,
2013-08-24 16:40:00,78.8,17.7,17.72,NNE,12,3.1,3.1,10,0.00,,---,0.00,VWS V13.01,2013-08-24 20:40:00,
2013-08-24 16:44:00,78.3,17.3,17.72,ENE,77,0.0,3.1,10,0.00,,---,0.00,VWS V13.01,2013-08-24 20:44:00,
2013-08-24 16:49:00,78.6,17.5,17.72,NE,51,0.0,0.0,10,0.00,,---,0.00,VWS V13.01,2013-08-24 20:49:00,
2013-08-24 16:54:00,78.8,17.7,17.72,NNE,19,0.0,0.0,10,0.00,,---,0.00,VWS V13.01,2013-08-24 20:54:00,
2013-08-24 16:59:00,79.0,17.8,17.72,NNE,14,0.0,0.0,10,0.00,,---,0.00,VWS V13.01,2013-08-24 20:59:00,
2013-08-24 17:04:00,79.0,17.8,17.72,ESE,104,0.0,0.0,10,0.00,,---,0.00,VWS V13.01,2013-08-24 21:04:00,
2013-08-24 17:09:00,79.2,18.0,17.72,East,89,0.0,0.0,10,0.00,,---,0.00,VWS V13.01,2013-08-24 21:09:00,
2013-08-24 17:14:00,78.8,17.7,17.72,ENE,59,3.6,3.6,10,0.00,,---,0.00,VWS V13.01,2013-08-24 21:14:00,
2013-08-24 17:19:00,79.0,17.8,17.72,East,86,0.0,0.0,10,0.00,,---,0.00,VWS V13.01,2013-08-24 21:19:00,
2013-08-24 17:24:00,79.2,18.0,17.72,East,84,2.2,2.2,10,0.00,,---,0.00,VWS V13.01,2013-08-24 21:24:00,
2013-08-24 17:29:00,79.0,17.8,17.72,North,4,0.0,3.1,10,0.00,,---,0.00,VWS V13.01,2013-08-24 21:29:00,
2013-08-24 17:34:00,79.0,17.8,17.72,ENE,57,0.0,0.0,10,0.00,,---,0.00,VWS V13.01,2013-08-24 21:34:00,
2013-08-24 17:39:00,78.8,17.7,17.72,ENE,67,0.0,0.0,10,0.00,,---,0.00,VWS V13.01,2013-08-24 21:39:00,
2013-08-24 17:44:00,79.0,17.8,17.72,North,9,0.0,0.0,10,0.00,,---,0.00,VWS V13.01,2013-08-24 21:44:00,
2013-08-24 17:49:00,79.0,17.8,17.72,North,11,0.0,2.7,10,0.00,,---,0.00,VWS V13.01,2013-08-24 21:49:00,
2013-08-24 17:54:00,78.6,17.5,17.72,NNE,26,0.0,2.7,10,0.00,,---,0.00,VWS V13.01,2013-08-24 21:54:00,
2013-08-24 17:59:00,78.3,17.3,17.72,ENE,60,0.0,0.0,10,0.00,,---,0.00,VWS V13.01,2013-08-24 21:59:00,
2013-08-24 18:04:00,77.5,16.7,17.72,NE,42,0.0,0.0,10,0.00,,---,0.00,VWS V13.01,2013-08-24 22:04:00,
2013-08-24 18:09:00,77.0,11.2,17.72,East,79,0.0,2.2,8,0.00,,---,0.00,VWS V13.01,2013-08-24 22:09:00,
2013-08-24 18:14:00,76.5,10.8,17.72,East,94,0.0,0.0,8,0.00,,---,0.00,VWS V13.01,2013-08-24 22:14:00,
2013-08-24 18:19:00,76.5,10.8,17.72,East,94,0.0,0.0,8,0.00,,---,0.00,VWS V13.01,2013-08-24 22:19:00,
2013-08-24 18:24:00,75.9,10.4,17.72,NNE,16,0.0,0.0,8,0.00,,---,0.00,VWS V13.01,2013-08-24 22:24:00,
2013-08-24 18:29:00,75.6,10.2,17.72,NNE,15,0.0,0.0,8,0.00,,---,0.00,VWS V13.01,2013-08-24 22:29:00,
2013-08-24 18:34:00,73.8,8.8,17.72,NNE,15,0.0,0.0,8,0.00,,---,0.00,VWS V13.01,2013-08-24 22:34:00,
2013-08-24 18:39:00,72.9,10.8,17.72,NNE,15,0.0,0.0,9,0.00,,---,0.00,VWS V13.01,2013-08-24 22:39:00,
2013-08-24 18:44:00,72.3,10.4,17.72,NNE,15,0.0,0.0,9,0.00,,---,0.00,VWS V13.01,2013-08-24 22:44:00,
2013-08-24 18:49:00,71.8,10.0,17.72,NNE,18,0.0,0.0,9,0.00,,---,0.00,VWS V13.01,2013-08-24 22:49:00,
2013-08-24 18:54:00,71.4,9.7,17.72,NNE,18,0.0,0.0,9,0.00,,---,0.00,VWS V13.01,2013-08-24 22:54:00,
2013-08-24 18:59:00,71.2,9.6,17.72,NNE,18,0.0,0.0,9,0.00,,---,0.00,VWS V13.01,2013-08-24 22:59:00,
2013-08-24 19:04:00,70.9,9.3,17.72,NNE,21,0.0,0.0,9,0.00,,---,0.00,VWS V13.01,2013-08-24 23:04:00,
2013-08-24 19:09:00,70.3,8.9,17.72,NNE,21,0.0,0.0,9,0.00,,---,0.00,VWS V13.01,2013-08-24 23:09:00,
2013-08-24 19:14:00,69.6,10.7,17.72,NNE,21,0.0,0.0,10,0.00,,---,0.00,VWS V13.01,2013-08-24 23:14:00,
2013-08-24 19:19:00,69.3,10.4,17.72,NNE,21,0.0,0.0,10,0.00,,---,0.00,VWS V13.01,2013-08-24 23:19:00,
2013-08-24 19:24:00,68.9,10.1,17.72,NNE,21,0.0,0.0,10,0.00,,---,0.00,VWS V13.01,2013-08-24 23:24:00,
2013-08-24 19:29:00,68.5,9.8,17.72,NNE,21,0.0,0.0,10,0.00,,---,0.00,VWS V13.01,2013-08-24 23:29:00,
2013-08-24 19:34:00,68.4,9.7,17.72,NNE,21,0.0,0.0,10,0.00,,---,0.00,VWS V13.01,2013-08-24 23:34:00,
2013-08-24 19:39:00,68.0,9.4,17.72,NNE,21,0.0,0.0,10,0.00,,---,0.00,VWS V13.01,2013-08-24 23:39:00,
2013-08-24 19:44:00,67.6,9.1,17.72,NNE,21,0.0,0.0,10,0.00,,---,0.00,VWS V13.01,2013-08-24 23:44:00,
2013-08-24 19:49:00,67.3,8.9,17.72,NNE,21,0.0,0.0,10,0.00,,---,0.00,VWS V13.01,2013-08-24 23:49:00,
2013-08-24 19:54:00,66.9,8.6,17.72,NNE,21,0.0,0.0,10,0.00,,---,0.00,VWS V13.01,2013-08-24 23:54:00,
2013-08-24 19:59:00,66.6,8.3,17.72,NNE,21,0.0,0.0,10,0.00,,---,0.00,VWS V13.01,2013-08-24 23:59:00,
2013-08-24 20:04:00,66.2,8.1,17.72,NNE,21,0.0,0.0,10,0.00,,---,0.00,VWS V13.01,2013-08-25 00:04:00,
2013-08-24 20:09:00,65.8,13.6,17.72,NNE,21,0.0,0.0,13,0.00,,---,0.00,VWS V13.01,2013-08-25 00:09:00,
2013-08-24 20:14:00,65.5,13.4,17.72,NNE,21,0.0,0.0,13,0.00,,---,0.00,VWS V13.01,2013-08-25 00:14:00,
2013-08-24 20:19:00,65.1,13.1,17.72,NNE,21,0.0,0.0,13,0.00,,---,0.00,VWS V13.01,2013-08-25 00:19:00,
2013-08-24 20:24:00,64.8,12.8,17.72,NNE,21,0.0,0.0,13,0.00,,---,0.00,VWS V13.01,2013-08-25 00:24:00,
2013-08-24 20:29:00,64.4,12.5,17.72,NNE,21,0.0,0.0,13,0.00,,---,0.00,VWS V13.01,2013-08-25 00:29:00,
2013-08-24 20:34:00,64.0,12.2,17.72,NNE,21,0.0,0.0,13,0.00,,---,0.00,VWS V13.01,2013-08-25 00:34:00,
2013-08-24 20:39:00,63.9,12.1,17.72,NNE,21,0.0,0.0,13,0.00,,---,0.00,VWS V13.01,2013-08-25 00:39:00,
2013-08-24 20:44:00,63.5,11.8,17.72,NNE,21,0.0,0.0,13,0.00,,---,0.00,VWS V13.01,2013-08-25 00:44:00,
2013-08-24 20:49:00,63.1,11.5,17.72,NNE,21,0.0,0.0,13,0.00,,---,0.00,VWS V13.01,2013-08-25 00:49:00,
2013-08-24 20:54:00,62.8,11.2,17.72,NNE,21,0.0,0.0,13,0.00,,---,0.00,VWS V13.01,2013-08-25 00:54:00,
2013-08-24 20:59:00,62.4,12.6,17.72,NNE,21,0.0,0.0,14,0.00,,---,0.00,VWS V13.01,2013-08-25 00:59:00,
2013-08-24 21:04:00,62.2,12.5,17.72,NNE,21,0.0,0.0,14,0.00,,---,0.00,VWS V13.01,2013-08-25 01:04:00,
2013-08-24 21:09:00,62.1,12.3,17.72,NNE,21,0.0,0.0,14,0.00,,---,0.00,VWS V13.01,2013-08-25 01:09:00,
2013-08-24 21:14:00,61.9,12.2,17.72,NNE,21,0.0,0.0,14,0.00,,---,0.00,VWS V13.01,2013-08-25 01:14:00,
2013-08-24 21:19:00,61.7,15.1,17.72,NNE,21,0.0,0.0,16,0.00,,---,0.00,VWS V13.01,2013-08-25 01:19:00,
2013-08-24 21:24:00,61.3,14.8,17.72,NNE,21,0.0,0.0,16,0.00,,---,0.00,VWS V13.01,2013-08-25 01:24:00,
2013-08-24 21:29:00,61.2,14.6,17.72,NNE,21,0.0,0.0,16,0.00,,---,0.00,VWS V13.01,2013-08-25 01:29:00,
2013-08-24 21:34:00,61.0,14.5,17.72,NNE,21,0.0,0.0,16,0.00,,---,0.00,VWS V13.01,2013-08-25 01:34:00,
2013-08-24 21:39:00,61.0,14.5,17.72,NNE,21,0.0,0.0,16,0.00,,---,0.00,VWS V13.01,2013-08-25 01:39:00,
2013-08-24 21:44:00,60.6,15.6,17.72,NNE,21,0.0,0.0,17,0.00,,---,0.00,VWS V13.01,2013-08-25 01:44:00,
2013-08-24 21:49:00,60.6,15.6,17.72,NNE,21,0.0,0.0,17,0.00,,---,0.00,VWS V13.01,2013-08-25 01:49:00,
2013-08-24 21:54:00,60.4,18.0,17.72,NNE,21,0.0,0.0,19,0.00,,---,0.00,VWS V13.01,2013-08-25 01:54:00,
2013-08-24 21:59:00,60.4,18.0,17.72,NNE,21,0.0,0.0,19,0.00,,---,0.00,VWS V13.01,2013-08-25 01:59:00,
2013-08-24 22:04:00,60.4,18.0,17.72,NNE,21,0.0,0.0,19,0.00,,---,0.00,VWS V13.01,2013-08-25 02:04:00,
2013-08-24 22:09:00,60.3,21.3,17.72,NNE,21,0.0,0.0,22,0.00,,---,0.00,VWS V13.01,2013-08-25 02:09:00,
2013-08-24 22:14:00,60.1,21.1,17.72,NNE,21,0.0,0.0,22,0.00,,---,0.00,VWS V13.01,2013-08-25 02:14:00,
2013-08-24 22:19:00,59.9,21.0,17.72,NNE,21,0.0,0.0,22,0.00,,---,0.00,VWS V13.01,2013-08-25 02:19:00,
2013-08-24 22:24:00,59.9,21.0,17.72,NNE,21,0.0,0.0,22,0.00,,---,0.00,VWS V13.01,2013-08-25 02:24:00,
2013-08-24 22:29:00,59.7,20.8,17.72,NNE,21,0.0,0.0,22,0.00,,---,0.00,VWS V13.01,2013-08-25 02:29:00,
2013-08-24 22:34:00,59.7,22.9,17.72,NNE,21,0.0,0.0,24,0.00,,---,0.00,VWS V13.01,2013-08-25 02:34:00,
2013-08-24 22:39:00,59.7,22.9,17.72,NNE,21,0.0,0.0,24,0.00,,---,0.00,VWS V13.01,2013-08-25 02:39:00,
2013-08-24 22:44:00,59.7,22.9,17.72,NNE,21,0.0,0.0,24,0.00,,---,0.00,VWS V13.01,2013-08-25 02:44:00,
2013-08-24 22:49:00,59.7,22.9,17.72,NNE,21,0.0,0.0,24,0.00,,---,0.00,VWS V13.01,2013-08-25 02:49:00,
2013-08-24 22:54:00,59.7,22.9,17.72,NNE,21,0.0,0.0,24,0.00,,---,0.00,VWS V13.01,2013-08-25 02:54:00,
2013-08-24 22:59:00,59.5,22.7,17.72,NNE,21,0.0,0.0,24,0.00,,---,0.00,VWS V13.01,2013-08-25 02:59:00,
2013-08-24 23:04:00,59.5,22.7,17.72,NNE,21,0.0,0.0,24,0.00,,---,0.00,VWS V13.01,2013-08-25 03:04:00,
2013-08-24 23:09:00,59.4,22.6,17.72,NNE,21,0.0,0.0,24,0.00,,---,0.00,VWS V13.01,2013-08-25 03:09:00,
2013-08-24 23:14:00,59.4,23.6,17.72,NNE,21,0.0,0.0,25,0.00,,---,0.00,VWS V13.01,2013-08-25 03:14:00,
2013-08-24 23:19:00,59.2,23.4,17.72,NNE,21,0.0,0.0,25,0.00,,---,0.00,VWS V13.01,2013-08-25 03:19:00,
2013-08-24 23:24:00,59.2,23.4,17.72,NNE,21,0.0,0.0,25,0.00,,---,0.00,VWS V13.01,2013-08-25 03:24:00,
2013-08-24 23:29:00,59.2,23.4,17.72,NNE,21,0.0,0.0,25,0.00,,---,0.00,VWS V13.01,2013-08-25 03:29:00,
2013-08-24 23:34:00,59.0,23.2,17.72,NNE,21,0.0,0.0,25,0.00,,---,0.00,VWS V13.01,2013-08-25 03:34:00,
2013-08-24 23:39:00,58.8,24.0,17.72,NNE,21,0.0,0.0,26,0.00,,---,0.00,VWS V13.01,2013-08-25 03:39:00,
2013-08-24 23:44:00,58.8,24.0,17.72,NNE,21,0.0,0.0,26,0.00,,---,0.00,VWS V13.01,2013-08-25 03:44:00,
2013-08-24 23:49:00,58.8,24.0,17.72,NNE,21,0.0,0.0,26,0.00,,---,0.00,VWS V13.01,2013-08-25 03:49:00,
2013-08-24 23:54:00,58.8,24.0,17.72,NNE,21,0.0,0.0,26,0.00,,---,0.00,VWS V13.01,2013-08-25 03:54:00,
2013-08-24 23:59:00,58.6,23.9,17.72,NNE,21,0.0,0.0,26,0.00,,---,0.00,VWS V13.01,2013-08-25 03:59:00,